Location: Emerald Isle
(34.6779°N, 76.9508°W)
Time: 23:04:45
(UTC-05:00)

ISS - Visible Passes

Search period start: 21 January 2018 00:00
Search period end: 31 January 2018 00:00
Orbit: 402 x 407 km, 51.6° (Epoch: 22 January)

Date Brightness Start Highest point End Pass type
(mag) Time Alt. Az. Time Alt. Az. Time Alt. Az.
22 Jan -1.9 19:19:16 10° SSW 19:20:48 25° SSW 19:20:48 25° SSW visible
23 Jan -2.5 18:27:33 10° S 18:30:15 24° SE 18:31:10 21° ESE visible
23 Jan -0.2 20:03:51 10° W 20:03:51 10° W 20:03:51 10° W visible
24 Jan -3.1 19:11:04 10° WSW 19:14:08 50° NW 19:14:08 50° NW visible
25 Jan -3.9 18:18:40 10° SW 18:21:55 73° SE 18:24:19 17° NE visible
26 Jan -1.8 19:03:33 10° W 19:06:08 21° NNW 19:07:05 19° N visible
27 Jan -2.7 18:10:35 10° WSW 18:13:40 39° NW 18:16:46 10° NNE visible
28 Jan -1.1 18:56:57 10° NW 18:58:10 12° NNW 18:59:23 10° N visible
29 Jan -1.5 18:03:12 10° WNW 18:05:32 18° NNW 18:07:54 10° NNE visible
